Regional Weather Roundup
Issued by NWS

Home | Current Version | Previous Version | Text Only | Print | Product List | Glossary On
Versions: 1 2 3 4 5 6 7 8 9 10 11 12 13 14 15 16 17 18 19 20 21 22 23 24 25 26 27 28 29 30 31 32 33 34 35 36 37 38 39 40 41 42 43 44 45 46 47 48 49 50
000
ASUS44 KJAN 221110
RWRMS

MISSISSIPPI HOURLY WEATHER ROUNDUP
NATIONAL WEATHER SERVICE JACKSON MS
500 AM CST THU FEB 22 2018

NOTE: "FAIR: INDICATES FEW OR NO CLOUDS BELOW 12,000 FEET WITH NO
SIGNIFICANT WEATHER AND/OR OBSTRUCTIONS TO VISIBILITY.

MSZ001>002-007>008-010>013-018>021-025>028-034>036-221200-
NORTHWEST MISSISSIPPI

CITY           SKY/WX    TMP DP  RH WIND       PRES   REMARKS
BATESVILLE       N/A    N/A N/A N/A MISG        N/A
CLARKSDALE     CLOUDY    45  45 100 NW10      30.27R
CLEVELAND      LGT RAIN  47  47 100 NW14      30.22S
GREENWOOD      LGT RAIN  58  57  97 N5        30.23S
GREENVILLE     LGT RAIN  48  47  96 NW5       30.23R
OXFORD         LGT RAIN  54  54 100 S8        30.23F
TUNICA           N/A     41  39  93 NW15      30.27S
WINONA         CLOUDY    60  60 100 CALM      30.23F
$$

MSZ003>006-009-014>017-022>024-029>033-037>039-221200-
NORTHEAST MISSISSIPPI

CITY           SKY/WX    TMP DP  RH WIND       PRES   REMARKS
ABERDEEN       CLOUDY    70  70 100 S6        30.28R
COLUMBUS AFB   FAIR      69  69 100 S10       30.26R
CORINTH        LGT RAIN  54  52  94 E6        30.24F
GOLDN TRIANGLE FAIR      69  67  93 S14       30.27R
STARKVILLE     FAIR      66  64  94 S8        30.27R
TUPELO         HVY RAIN  63  61  93 S7        30.26R FOG
$$

MSZ040-058-221200-
CENTRAL MISSISSIPPI

CITY           SKY/WX    TMP DP  RH WIND       PRES   REMARKS
JACKSON INTL   MOCLDY    70  68  93 S12       30.24S
JACKSON HAWKNS MOCLDY    70  69  97 S9          N/A
MADISON        CLOUDY    70  68  94 S3        30.24R
MERIDIAN KEY   CLOUDY    72  68  87 S8        30.30R
MERIDIAN NAS   MOCLDY    70  67  90 SE3       30.30R
RAYMOND        FAIR      70  68  94 SE7G13    30.23S FOG
VICKSBURG VKS  CLOUDY    61  61 100 CALM      30.23F
$$

MSZ059>079-221200-
SOUTH MISSISSIPPI

CITY           SKY/WX    TMP DP  RH WIND       PRES   REMARKS
COLUMBIA       PTSUNNY   70  70 100 S5        30.31S
HATTIESBURG    CLOUDY    70  70 100 CALM      30.29R
LAUREL         CLOUDY    70  70 100 S3        30.30R
MCCOMB         CLOUDY    72  68  87 S7        30.26R
NATCHEZ        CLOUDY    71  68  90 S6        30.23S
PINE BELT      FAIR      70  69  97 S7        30.29R
$$

MSZ080>082-221200-
COASTAL MISSISSIPPI

CITY           SKY/WX    TMP DP  RH WIND       PRES   REMARKS
BILOXI         FAIR      71  70  97 SE7       30.28S
PASCAGOULA     CLOUDY    71  69  93 SE7       30.29S
GULFPORT       CLOUDY    72  72 100 SE8       30.27S FOG
$$

LAZ007>009-015>016-023>026-221200-
NORTHEAST LOUISIANA

CITY           SKY/WX    TMP DP  RH WIND       PRES   REMARKS
BASTROP        RAIN      49  48  98 CALM      30.24R
TALLULAH/VBURG MOCLDY    58  58 100 E3        30.22F
VIDALIA        CLOUDY    63  62  96 N3        30.21F
$$



USA.gov is the U.S. government's official web portal to all federal, state and local government web resources and services.